Weather History for Fallon NAS, NV

Change the Weather History Date:

Wednesday, April 16, 2014

  Actual Average Record
Temperature  
Mean Temperature 54 °F -  
Max Temperature 73 °F 65 °F 86 °F (1936)
Min Temperature 37 °F 33 °F 21 °F (1960)
Degree Days  
Heating Degree Days 10    
Growing Degree Days 4 (Base 50)    
Moisture  
Dew Point 19 °F    
Average Humidity 26    
Maximum Humidity 47    
Minimum Humidity 13    
Precipitation  
Precipitation 0.00 in - - ()
Sea Level Pressure  
Sea Level Pressure 29.88 in    
Wind  
Wind Speed 5 mph (NE)    
Max Wind Speed 8 mph    
Max Gust Speed -    
Visibility 10 miles    
Events      
Averages and records for this station are not official NWS values.
T = Trace of Precipitation, MM = Missing Value Source: NWS Daily Summary

Daily Weather History Graph

Daily Weather History Graph

Search for Another Location

Airport:

Trip Planner

Search our weather history database for the weather conditions in past years. The results will help you decide how hot, cold, wet, or windy it might be!

Date:

Astronomy

Apr. 16, 2014 Rise Set
Actual Time 6:16 AM PDT 7:33 PM PDT
Civil Twilight 5:48 AM PDT 8:01 PM PDT
Nautical Twilight 5:14 AM PDT 8:35 PM PDT
Astronomical Twilight 4:40 AM PDT 9:10 PM PDT
Moon 9:21 PM PDT (4/16) 7:07 AM PDT (4/16)
Length of Visible Light 14h 13m
Length of Day
13h 17m
Full, 98% of the Moon is Illuminated
Apr 16
Full
Apr 22
Last Quarter
Apr 28
New
May 6
First Quarter
May 14
Full

Hourly Weather History & Observations

Time (PDT) Temp. Windchill Dew Point Humidity Pressure Visibility Wind Dir Wind Speed Gust Speed Precip Events Conditions
12:56 AM 48.0 °F - 18.0 °F 30% 29.88 in 10.0 mi ENE 4.6 mph - N/A   Clear
1:56 AM 45.0 °F 41.8 °F 18.0 °F 34% 29.88 in 10.0 mi NE 5.8 mph - N/A   Clear
2:56 AM 45.0 °F 41.2 °F 17.1 °F 33% 29.88 in 10.0 mi North 6.9 mph - N/A   Clear
3:56 AM 41.0 °F 36.4 °F 18.0 °F 40% 29.89 in 10.0 mi WSW 6.9 mph - N/A   Scattered Clouds
4:56 AM 37.9 °F 32.7 °F 19.0 °F 47% 29.89 in 10.0 mi SE 6.9 mph - N/A   Scattered Clouds
5:56 AM 42.1 °F 40.2 °F 18.0 °F 38% 29.89 in 10.0 mi South 3.5 mph - N/A   Scattered Clouds
6:20 AM 43.0 °F - 19.0 °F 38% 29.98 in 10.0 mi Calm Calm - N/A   Scattered Clouds
6:56 AM 39.0 °F 36.8 °F 19.0 °F 45% 29.90 in 10.0 mi SSW 3.5 mph - N/A   Scattered Clouds
7:56 AM 50.0 °F - 19.0 °F 29% 29.92 in 10.0 mi SE 4.6 mph - N/A   Scattered Clouds
8:56 AM 55.0 °F - 15.1 °F 21% 29.92 in 10.0 mi Calm Calm - N/A   Scattered Clouds
9:56 AM 59.0 °F - 18.0 °F 20% 29.92 in 10.0 mi NE 5.8 mph - N/A   Mostly Cloudy
10:56 AM 62.1 °F - 18.0 °F 18% 29.92 in 10.0 mi Variable 5.8 mph - N/A   Mostly Cloudy
11:56 AM 64.9 °F - 17.1 °F 16% 29.91 in 10.0 mi Variable 4.6 mph - N/A   Mostly Cloudy
12:56 PM 66.9 °F - 19.0 °F 16% 29.89 in 10.0 mi NNW 8.1 mph - N/A   Mostly Cloudy
1:56 PM 69.1 °F - 18.0 °F 14% 29.88 in 10.0 mi Variable 3.5 mph - N/A   Mostly Cloudy
2:56 PM 69.1 °F - 18.0 °F 14% 29.86 in 10.0 mi Calm Calm - N/A   Mostly Cloudy
3:56 PM 71.1 °F - 18.0 °F 13% 29.85 in 10.0 mi NE 8.1 mph - N/A   Mostly Cloudy
4:56 PM 72.0 °F - 18.0 °F 13% 29.83 in 10.0 mi NNW 6.9 mph - N/A   Mostly Cloudy
5:56 PM 70.0 °F - 19.0 °F 14% 29.82 in 10.0 mi NNE 5.8 mph - N/A   Mostly Cloudy
6:56 PM 69.1 °F - 19.9 °F 15% 29.83 in 10.0 mi NE 6.9 mph - N/A   Mostly Cloudy
7:56 PM 61.0 °F - 19.9 °F 21% 29.83 in 10.0 mi ENE 8.1 mph - N/A   Scattered Clouds
8:56 PM 57.0 °F - 19.9 °F 24% 29.86 in 10.0 mi East 5.8 mph - N/A   Partly Cloudy
9:56 PM 55.0 °F - 19.9 °F 25% 29.87 in 10.0 mi Calm Calm - N/A   Partly Cloudy
10:56 PM 51.1 °F - 21.0 °F 31% 29.87 in 10.0 mi West 4.6 mph - N/A   Clear
11:56 PM 51.1 °F - 21.9 °F 32% 29.87 in 10.0 mi SW 3.5 mph - N/A   Clear